Location: Nachod
(50.4170°N, 16.1670°E)
Time: 17:52:13
(UTC+02:00)

ISS - Pass Details

Date: 27 March 2019
Orbit: 408 x 410 km, 51.6° (Epoch: 27 April)

Event Time Altitude Azimuth Distance (km) Brightness Sun altitude
Rises 20:08:30 0° 267° (W) 2,335 1.1 -17.5°
Reaches altitude 10° 20:10:36 10° 270° (W) 1,474 -0.1 -17.8°
Maximum altitude 20:13:54 71° 355° (N) 437 -3.7 -18.2°
Enters shadow 20:14:34 51° 59° (ENE) 523 -3.6 -18.3°
